カタログに戻る

STARLINK-32284

運用中通信VLEO
NORAD 61005·PAYLOAD·🇺🇸 United States

打ち上げ Sep 5, 2024 から Cape Canaveral Space Force Station

Loading…

次のパス (今後24時間)

TLE

最新Source: CelesTrak SupGP

元期: Sep 14, 2026, 20:51 UTC

1 61005C 24158R   26257.86923611  .00048076  00000+0  14208-2 0  2578
2 61005  53.1568 263.6967 0001328  85.2579 125.9883 15.34357003    19

AllMySatでSTARLINK-32284をリアルタイム追跡

Download on the App Store